Regional Weather Roundup
Issued by NWS

Home | Current Version | Previous Version | Text Only | Print | Product List | Glossary Off
Versions: 1 2 3 4 5 6 7 8 9 10 11 12 13 14 15 16 17 18 19 20 21 22 23 24 25 26 27 28 29 30 31 32 33 34 35 36 37 38 39 40 41 42 43 44 45 46 47 48 49 50

000
ASUS43 KLOT 200009
RWRIL

ILLINOIS REGIONAL WEATHER ROUNDUP
NATIONAL WEATHER SERVICE CHICAGO/ROMEOVILLE IL
700 PM CDT THU OCT 19 2017

NOTE: "FAIR" INDICATES FEW OR NO CLOUDS BELOW 12,000 FEET WITH NO
SIGNIFICANT WEATHER AND/OR OBSTRUCTIONS TO VISIBILITY.

* THESE STATIONS ARE NOT UNDER NWS QUALITY CONTROL. THEY ALSO MAY NOT
  REPORT WEATHER SUCH AS PRECIPITATION OR FOG.

ILZ001-002-007-009-015-016-024-200100-
NORTHWEST ILLINOIS

CITY           SKY/WX    TMP DP  RH WIND       PRES   REMARKS
MOLINE         NOT AVBL
STERLING*      CLOUDY    64  39  39 SE5         N/A
SAVANNA*       CLOUDY    59  41  51 SE5       30.11S
$$

ILZ003-004-008-010-011-017-018-200100-
NORTH CENTRAL ILLINOIS

CITY           SKY/WX    TMP DP  RH WIND       PRES   REMARKS
ROCKFORD       CLOUDY    59  36  42 SE6       30.15S
6HR MIN TEMP:  58; 6HR MAX TEMP:  71;

FREEPORT*      CLOUDY    57  33  39 SE7       30.14S
ROCHELLE*      CLEAR     57  37  46 SE7       30.14F
DE KALB*       CLOUDY    59  35  40 SE7       30.16S
PERU*          CLOUDY    63  40  42 E6        30.14S
$$

ILZ005-006-012>014-019>023-200100-
NORTHEAST ILLINOIS

CITY           SKY/WX    TMP DP  RH WIND       PRES   REMARKS
CHICAGO-OHARE  CLOUDY    57  28  33 SE8       30.16S
6HR MIN TEMP:  57; 6HR MAX TEMP:  70;

CHICAGO-MIDWAY CLOUDY    60  32  34 SE6       30.17S
6HR MIN TEMP:  60; 6HR MAX TEMP:  69;

AURORA         CLOUDY    56  39  53 CALM      30.16S
6HR MIN TEMP:  56; 6HR MAX TEMP:  71;

LANSING*       CLOUDY    58  38  49 E3        30.18S
JOLIET*        CLOUDY    61  38  43 E5        30.16S
WAUKEGAN       CLEAR     56  33  42 S6        30.16S
6HR MIN TEMP:  56; 6HR MAX TEMP:  65;

DUPAGE AIRPORT CLOUDY    58  38  47 SE6       30.15S
6HR MIN TEMP:  57; 6HR MAX TEMP:  70;

KANKAKEE*      PTCLDY    60  44  54 E5        30.17S
WHEELING       CLEAR     56  31  38 SE5       30.18R
6HR MIN TEMP:  56; 6HR MAX TEMP:  69;

MORRIS*        CLOUDY    64  33  31 E5        30.14S
ROMEOVILLE*    CLOUDY    59  35  40 E6        30.16S
NORTHERLY ISL    N/A     57  47  69 SE5         N/A
$$

LMZ740>746-200100-
SOUTHERN LAKE MICHIGAN

STATION/POSITION SKY/WX   TEMP    WIND        PRES    VSBY  WAVE
                          AIR SEA DIR/SP/G                  HT/PER
                          (F)     (DEG/KT/KT) (MB)    (MI)  (FT/S)
SOUTHERN BUOY              60 61  210/ 12/ 14 1021.5          1/ 4
WILMETTE HARBOR            59 58  150/  8/  8   N/A           1/ 2
HARRISON CRIB              60     140/  9/ 10   N/A
BURNHAM HARBOR             57     130/  6/  7   N/A
CALUMET HARBOR             59     100/  5/  6 1021.2R
BURNS HARBOR               62     130/  4/  7 1022.4
MICHIGAN CITY              58      80/  4/  5   N/A
MICHIGAN CITY 6N           58 58  130/  4/  4   N/A           1/ 4
ST. JOSEPH                 58 59  220/  4/  6 1022.5          2/ 5
$$

ILZ025>027-034>036-040-047-049-050-058-095>099-200100-
WEST-CENTRAL ILLINOIS

CITY           SKY/WX    TMP DP  RH WIND       PRES   REMARKS
GALESBURG*     CLEAR     73  61  66 SE3       30.13R
MACOMB*        CLEAR     64  52  64 S5        30.14R
JACKSONVILLE*  CLEAR     69  50  51 S3        30.14R
PITTSFIELD*    CLEAR     69  53  55 SE5       30.14S
$$

ILZ028>032-037-038-041>044-048-051>054-059>061-200100-
CENTRAL ILLINOIS

CITY           SKY/WX    TMP DP  RH WIND       PRES   REMARKS
PONTIAC        CLEAR     60  52  74 E6        30.16R
BLOOMINGTON    CLEAR     65  51  60 S5        30.16R
DECATUR        CLEAR     66  51  58 S5        30.16R
PEORIA         CLEAR     65  56  72 CALM      30.13R
6HR MIN TEMP:  65; 6HR MAX TEMP:  75;

LACON*         CLEAR     60  53  77 CALM      30.12S
LINCOLN*       CLEAR     65  53  65 S3        30.14S
SPRINGFIELD    CLEAR     66  53  63 S7        30.15R
6HR MIN TEMP:  66; 6HR MAX TEMP:  80;

TAYLORVILLE    CLEAR     65  50  57 S7        30.16R
6HR MIN TEMP:  65; 6HR MAX TEMP:  79;

$$

ILZ033-039-045-046-055>057-062-063-200100-
EAST-CENTRAL ILLINOIS

CITY           SKY/WX    TMP DP  RH WIND       PRES   REMARKS
CHAMPAIGN      CLEAR     62  49  62 S7        30.17R
DANVILLE*      CLOUDY    65  51  62 E5        30.15R
RANTOUL*       CLEAR     67  55  65 CALM      30.16S
MATTOON        CLEAR     66  52  60 S6        30.17R
PARIS*         CLEAR     59  51  74 S6        30.19R
$$

ILZ079-100>102-200100-
SOUTHWEST ILLINOIS

CITY           SKY/WX    TMP DP  RH WIND       PRES   REMARKS
ALTON          CLEAR     63  54  72 CALM      30.16R
BELLEVILLE     CLEAR     67  48  51 SE3       30.18R
CAHOKIA*       LGT RAIN  70  49  47 SE6       30.14R
SPARTA*        CLEAR     69  50  51 SE5       30.18R
$$

ILZ064>066-069>071-074>076-080>082-084>086-088>090-092>094-200100-
SOUTH-CENTRAL ILLINOIS

CITY           SKY/WX    TMP DP  RH WIND       PRES   REMARKS
CARBONDALE     CLEAR     59  53  80 SE3       30.18R
6HR MIN TEMP:  59; 6HR MAX TEMP:  77;

CAIRO*         CLEAR     60  53  76 S3        30.19S
EFFINGHAM*     CLEAR     64  53  67 CALM      30.19R
MARION         CLEAR     68  54  60 S6        30.19S
MT. VERNON     CLEAR     58  54  86 CALM      30.19R
CENTRALIA*     CLEAR     65  51  59 S6        30.17R
SALEM*         CLEAR     70  50  49 SE5       30.18R
METROPOLIS*    CLEAR     63  54  72 CALM      30.21R
$$

ILZ067-068-072-073-078-083-087-091-200100-
SOUTHEAST ILLINOIS

CITY           SKY/WX    TMP DP  RH WIND       PRES   REMARKS
LAWRENCEVILLE  CLEAR     65  53  65 S8        30.19R
FLORA*         CLEAR     64  51  62 S3        30.19R
FAIRFIELD*     CLEAR     65  51  60 CALM      30.18R
HARRISBURG*    CLEAR     67  53  59 S3        30.19R
ROBINSON*      CLEAR     61  52  71 CALM      30.19S
CARMI*         CLEAR     60  51  70 S5        30.19R
$$

ABBREVIATIONS USED IN REMARKS
   TC - TEMPERATURE IN CELSIUS
  WCI - WIND CHILL INDEX
   HX - HEAT INDEX
  VSB - VISIBILITY
$$





USA.gov is the U.S. government's official web portal to all federal, state and local government web resources and services.